Weather reports worldwide

Advertisment
Kaisersbach-Cronhütte, Germany (10747): temperature & dewpoint: 16.09.2018 23:00:00 - 22.09.2018 23:00:00 (CEST)Kaisersbach-Cronhütte, Germany (10747): temperature 5cm & temperature -5cm: 16.09.2018 23:00:00 - 22.09.2018 23:00:00 (CEST)Kaisersbach-Cronhütte, Germany (10747): temperature -20cm & temperature -100cm: 16.09.2018 23:00:00 - 22.09.2018 23:00:00 (CEST)Kaisersbach-Cronhütte, Germany (10747): wind speed & gusts: 16.09.2018 23:00:00 - 22.09.2018 23:00:00 (CEST)Kaisersbach-Cronhütte, Germany (10747): wind direction: 16.09.2018 23:00:00 - 22.09.2018 23:00:00 (CEST)Kaisersbach-Cronhütte, Germany (10747): reduced air pressure: 16.09.2018 23:00:00 - 22.09.2018 23:00:00 (CEST)Kaisersbach-Cronhütte, Germany (10747): visibility: 16.09.2018 23:00:00 - 22.09.2018 23:00:00 (CEST)Kaisersbach-Cronhütte, Germany (10747): sunshine duration: 16.09.2018 23:00:00 - 22.09.2018 23:00:00 (CEST)Kaisersbach-Cronhütte, Germany (10747): precipitation: 16.09.2018 23:00:00 - 22.09.2018 23:00:00 (CEST)
Date & Time tt [°C] td [°C] tt 5cm [°C] tt -5cm [°C] tt -20cm [°C] tt -100cm [°C] ff [km/h] ff [kn] fx [km/h] fx [kn] dd ppp [hPa] vv [km] sd [min] rr [mm]
22.09.2018 23:00:00 10,0 8,3 10,0 15,8 18,5 18,5 0 0 5 3 N 1021,5 65 0 0,1
22.09.2018 22:00:00 11,0 6,6 10,2 16,3 18,7 18,5 2 1 4 2 WSW 1021,4 69 0 0,0
22.09.2018 21:00:00 11,6 6,5 10,3 17,1 19,0 18,5 2 1 10 5 WNW 1021,3 70 0 0,1
22.09.2018 20:00:00 13,4 4,0 12,7 18,0 19,2 18,5 5 3 16 8 WNW 1020,8 70 0 0,0
22.09.2018 19:00:00 14,8 3,4 14,4 19,4 19,2 18,5 9 5 17 9 W 1020,3 70 0 0,0
22.09.2018 18:00:00 15,7 3,1 16,1 20,9 19,1 18,6 9 5 23 13 W 1020,5 70 11 0,0
22.09.2018 17:00:00 16,6 3,4 20,6 22,1 18,7 18,6 10 5 27 15 WSW 1020,5 55 53 0,0
22.09.2018 16:00:00 15,6 2,8 16,6 22,2 18,2 18,6 12 6 28 15 SSW 1021,2 70 45 0,0
22.09.2018 15:00:00 15,1 3,2 19,8 21,7 17,6 18,6 9 5 22 12 W 1021,9 70 37 0,0
22.09.2018 14:00:00 15,5 3,5 19,4 21,5 17,0 18,6 12 6 25 13 WSW 1022,4 58 53 0,0
22.09.2018 13:00:00 14,0 3,3 18,0 19,2 16,5 18,6 15 8 24 13 WSW 1023,4 57 45 0,0
22.09.2018 12:00:00 13,2 4,5 15,5 17,5 16,2 18,6 14 7 28 15 WSW 1024,2 58 49 0,0
22.09.2018 11:00:00 12,5 5,4 14,7 15,8 16,1 18,6 13 7 25 13 SW 1024,4 56 38 0,0
22.09.2018 10:00:00 11,5 6,1 12,7 13,9 16,1 18,6 11 6 21 11 WSW 1024,7 70 15 0,0
22.09.2018 09:00:00 10,0 6,4 10,1 12,4 16,3 18,6 4 2 10 5 WSW 1024,8 70 0 0,0
22.09.2018 08:00:00 8,4 5,9 6,9 11,6 16,6 18,6 2 1 9 5 S 1024,7 63 0 0,0
22.09.2018 07:00:00 8,4 5,7 6,7 11,7 16,9 18,6 4 2 8 5 SSW 1024,1 66 0 0,0
22.09.2018 06:00:00 9,0 5,0 7,5 12,0 17,2 18,6 7 4 11 6 S 1024,0 70 0 0,0
22.09.2018 05:00:00 10,0 4,7 7,1 12,4 17,6 18,6 5 3 16 9 WSW 1023,7 70 0 0,0
22.09.2018 04:00:00 10,2 5,5 7,9 12,9 17,9 18,6 6 3 13 7 SW 1023,3 70 0 0,0
22.09.2018 03:00:00 10,7 6,5 8,8 13,5 18,3 18,6 5 3 19 10 W 1022,6 70 0 0,0
22.09.2018 02:00:00 11,3 7,2 10,3 14,2 18,6 18,6 8 5 19 11 W 1022,1 66 0 0,0
22.09.2018 01:00:00 11,7 7,3 10,9 14,5 19,0 18,6 12 6 20 11 W 1021,4 70 0 0,0
22.09.2018 00:00:00 11,4 7,5 10,5 14,9 19,4 18,6 9 5 22 12 W 1020,9 69 0 0,0
21.09.2018 23:00:00 10,9 8,3 10,0 15,3 19,8 18,6 6 3 17 9 WSW 1020,2 56 0 0,0
21.09.2018 22:00:00 10,9 8,8 10,1 15,8 20,3 18,6 8 4 23 12 W 1019,3 49 0 0,0
21.09.2018 21:00:00 11,0 9,3 10,3 16,8 20,7 18,6 13 7 24 13 W 1018,7 42 0 0,0
21.09.2018 20:00:00 10,7 9,0 10,4 17,8 21,2 18,6 13 7 45 24 W 1017,2 69 0 0,6
21.09.2018 19:00:00 12,7 7,5 12,2 19,7 21,5 18,6 23 12 52 28 WNW 1015,3 52 0 0,0
21.09.2018 18:00:00 20,2 11,6 17,8 22,2 21,6 18,6 7 4 39 21 WSW 1010,3 61 0 0,5
21.09.2018 17:00:00 23,3 10,9 23,1 23,4 21,6 18,6 17 9 41 22 SW 1009,0 50 0 0,0
21.09.2018 16:00:00 23,7 12,3 23,9 24,5 21,4 18,6 16 9 39 21 WSW 1009,1 44 0 0,0
21.09.2018 15:00:00 24,7 11,7 25,5 25,0 21,0 18,6 24 13 45 24 SW 1009,2 41 0 0,0
21.09.2018 14:00:00 25,1 12,0 26,2 25,7 20,5 18,6 19 10 40 21 WSW 1009,3 45 14 0,0
21.09.2018 13:00:00 25,4 11,7 26,9 26,0 19,8 18,5 20 11 44 24 WSW 1009,6 49 40 0,0
21.09.2018 12:00:00 26,1 11,6 28,9 24,1 19,3 18,5 16 8 38 20 SW 1010,1 46 50 0,0
21.09.2018 11:00:00 23,8 11,6 24,8 21,6 18,9 18,5 13 7 29 16 SSW 1010,7 55 31 0,0
21.09.2018 10:00:00 22,3 12,5 23,7 19,5 18,8 18,5 10 5 23 13 S 1010,9 40 59 0,0
21.09.2018 09:00:00 15,0 11,7 16,6 16,4 19,0 18,5 2 1 3 2 E 1012,7 17 60 0,0
21.09.2018 08:00:00 11,8 10,3 10,3 15,3 19,3 18,5 0 0 3 2 N 1013,5 12 17 0,0
21.09.2018 07:00:00 10,6 10,0 8,2 15,6 19,6 18,5 0 0 0 0 N 1013,9 8 0 0,0
21.09.2018 06:00:00 11,1 10,3 8,8 16,0 19,9 18,5 0 0 0 0 N 1014,1 14 0 0,0
21.09.2018 05:00:00 11,9 10,8 9,7 16,4 20,3 18,5 2 1 4 2 NW 1014,4 21 0 0,0
21.09.2018 04:00:00 11,8 10,8 9,2 16,9 20,6 18,5 0 0 3 2 N 1014,9 17 0 0,0
21.09.2018 03:00:00 12,5 11,1 9,8 17,4 21,0 18,5 3 1 4 2 NW 1015,1 21 0 0,0
21.09.2018 02:00:00 12,8 11,4 10,2 18,0 21,4 18,5 2 1 4 2 NW 1015,5 21 0 0,0
21.09.2018 01:00:00 13,3 11,6 10,7 18,7 21,8 18,5 0 0 1 1 N 1015,8 22 0 0,0
21.09.2018 00:00:00 14,2 12,1 11,7 19,5 22,3 18,5 0 0 2 1 N 1016,1 27 0 0,0
20.09.2018 23:00:00 15,7 12,1 12,8 20,4 22,7 18,5 2 1 4 2 WNW 1016,3 31 0 0,0
20.09.2018 22:00:00 16,9 12,8 13,9 21,4 23,1 18,5 3 1 5 3 NNW 1016,5 34 0 0,0
20.09.2018 21:00:00 18,8 13,0 15,0 22,5 23,4 18,5 1 0 8 4 NNE 1016,3 36 0 0,0
20.09.2018 20:00:00 20,4 13,0 16,0 24,2 23,7 18,5 0 0 4 2 N 1015,9 39 0 0,0
20.09.2018 19:00:00 24,4 12,5 20,8 26,4 23,7 18,5 2 1 11 6 NW 1015,1 52 59 0,0
20.09.2018 18:00:00 27,1 11,6 27,9 27,9 23,5 18,5 7 4 17 9 SSW 1015,0 60 49 0,0
20.09.2018 17:00:00 27,1 11,2 30,0 29,1 23,0 18,5 12 6 23 12 W 1015,5 47 46 0,0
20.09.2018 16:00:00 27,3 11,9 30,5 29,8 22,4 18,5 10 6 24 13 WSW 1015,9 42 56 0,0
20.09.2018 15:00:00 27,2 11,9 32,7 29,8 21,6 18,5 10 5 22 12 WSW 1016,7 35 60 0,0
20.09.2018 14:00:00 26,2 12,5 30,4 28,9 20,8 18,5 11 6 20 11 WSW 1017,6 33 60 0,0
20.09.2018 13:00:00 25,7 12,8 30,2 27,5 20,0 18,5 10 5 19 10 SW 1018,2 39 60 0,0
20.09.2018 12:00:00 24,1 13,3 28,6 25,2 19,4 18,4 8 4 18 10 WSW 1019,1 30 60 0,0
20.09.2018 11:00:00 23,2 13,3 26,0 22,7 18,9 18,4 6 3 13 7 WSW 1019,4 40 60 0,0
20.09.2018 10:00:00 20,7 13,5 25,9 20,0 18,8 18,4 2 1 4 2 N 1020,0 28 60 0,0
20.09.2018 09:00:00 15,4 11,6 19,0 16,8 18,9 18,4 0 0 3 2 N 1021,0 20 60 0,0
20.09.2018 08:00:00 12,3 10,5 11,5 15,5 19,1 18,4 0 0 3 2 N 1021,3 18 17 0,0
20.09.2018 07:00:00 10,8 10,2 9,0 15,6 19,5 18,4 0 0 0 0 N 1021,5 8 0 0,0
20.09.2018 06:00:00 11,4 10,4 9,4 16,0 19,8 18,4 0 0 3 1 N 1021,3 16 0 0,0
20.09.2018 05:00:00 11,6 10,4 10,4 16,4 20,1 18,4 0 0 3 2 N 1021,4 18 0 0,0
20.09.2018 04:00:00 11,8 10,8 10,2 16,8 20,5 18,4 0 0 2 1 W 1021,2 18 0 0,0
20.09.2018 03:00:00 12,0 10,8 10,3 17,2 20,8 18,4 0 0 2 1 N 1021,4 21 0 0,0
20.09.2018 02:00:00 12,9 11,0 10,7 17,8 21,2 18,4 0 0 3 1 N 1021,4 26 0 0,0
20.09.2018 01:00:00 13,4 11,3 11,2 18,4 21,6 18,4 2 1 3 1 NW 1021,4 27 0 0,0
20.09.2018 00:00:00 14,4 11,2 11,6 19,1 22,0 18,4 0 0 3 2 N 1021,3 30 0 0,0
19.09.2018 23:00:00 15,0 11,5 12,4 19,9 22,4 18,4 0 0 3 2 N 1021,1 32 0 0,0
19.09.2018 22:00:00 16,2 11,6 13,4 20,8 22,8 18,4 0 0 4 2 N 1020,6 36 0 0,0
19.09.2018 21:00:00 17,4 11,6 14,5 22,0 23,2 18,4 3 1 5 3 W 1020,3 31 0 0,0
19.09.2018 20:00:00 19,8 11,5 15,7 23,7 23,5 18,4 2 1 4 2 NW 1019,5 32 0 0,0
19.09.2018 19:00:00 23,7 11,2 20,1 25,9 23,5 18,4 2 1 11 6 WNW 1018,4 67 45 0,0
19.09.2018 18:00:00 27,0 10,2 27,9 27,9 23,3 18,4 6 3 18 10 WSW 1017,6 56 56 0,0
19.09.2018 17:00:00 27,2 10,2 29,8 28,9 22,9 18,4 9 5 24 13 W 1017,8 53 60 0,0
19.09.2018 16:00:00 26,9 10,7 30,1 28,5 22,3 18,4 5 3 25 13 SSW 1018,1 55 34 0,0
19.09.2018 15:00:00 26,2 11,3 28,3 29,7 21,5 18,4 9 5 23 12 S 1018,6 54 57 0,0
19.09.2018 14:00:00 26,7 11,3 30,8 29,1 20,7 18,4 10 5 22 12 SW 1018,8 31 60 0,0
19.09.2018 13:00:00 25,5 11,1 29,4 27,8 19,9 18,4 9 5 19 11 S 1019,4 29 60 0,0
19.09.2018 12:00:00 24,5 9,6 27,9 25,7 19,2 18,4 6 4 16 8 S 1019,8 48 60 0,0
19.09.2018 11:00:00 22,6 10,4 26,4 22,8 18,8 18,4 5 3 8 4 SE 1020,3 47 60 0,0
19.09.2018 10:00:00 19,3 12,1 24,5 19,3 18,7 18,4 3 2 5 3 E 1020,7 41 54 0,0
19.09.2018 09:00:00 14,5 10,6 17,2 16,5 18,9 18,4 0 0 2 1 N 1021,2 32 46 0,0
19.09.2018 08:00:00 11,0 10,1 10,3 15,5 19,2 18,4 0 0 4 2 N 1021,4 17 0 0,0
19.09.2018 07:00:00 11,3 10,2 9,2 15,7 19,5 18,4 0 0 3 2 N 1021,0 25 0 0,0
19.09.2018 06:00:00 11,8 10,3 9,6 16,2 19,8 18,4 0 0 3 1 N 1020,6 30 0 0,0
19.09.2018 05:00:00 12,4 10,5 9,9 16,6 20,2 18,4 0 0 4 2 N 1020,2 33 0 0,0
19.09.2018 04:00:00 13,0 11,2 10,5 17,2 20,5 18,4 0 0 5 3 N 1019,8 34 0 0,0
19.09.2018 03:00:00 15,0 10,8 11,9 17,8 20,9 18,4 4 2 8 5 WSW 1019,4 55 0 0,0
19.09.2018 02:00:00 14,9 11,6 12,4 18,4 21,2 18,4 2 1 6 3 SSW 1019,4 43 0 0,0
19.09.2018 01:00:00 15,7 12,3 12,9 19,3 21,6 18,4 2 1 10 5 W 1018,9 37 0 0,0
19.09.2018 00:00:00 17,0 12,7 15,2 20,2 21,9 18,4 3 2 7 4 WSW 1018,4 36 0 0,0
18.09.2018 23:00:00 17,8 12,7 16,2 20,8 22,2 18,4 4 2 7 4 W 1018,3 41 0 0,0
18.09.2018 22:00:00 18,7 13,2 17,8 21,5 22,5 18,4 3 1 9 5 SSE 1017,8 46 0 0,0
18.09.2018 21:00:00 19,0 13,4 18,2 22,5 22,8 18,4 5 3 12 6 SSE 1017,2 51 0 0,0
18.09.2018 20:00:00 21,1 12,2 18,7 23,8 23,1 18,4 5 3 23 12 SSW 1016,0 45 0 0,0
18.09.2018 19:00:00 23,4 11,9 20,3 25,5 23,1 18,4 5 3 16 9 W 1014,9 53 0 0,0
18.09.2018 18:00:00 27,0 11,2 26,6 28,3 22,8 18,4 6 4 20 11 WSW 1014,0 52 54 0,0
18.09.2018 17:00:00 27,9 10,0 29,8 29,5 22,2 18,4 11 6 18 10 W 1013,9 40 55 0,0
18.09.2018 16:00:00 27,9 10,0 31,7 28,7 21,6 18,4 7 4 20 11 W 1014,2 36 57 0,0
18.09.2018 15:00:00 27,7 8,8 30,7 29,3 20,7 18,4 11 6 20 11 SSW 1014,8 34 60 0,0
18.09.2018 14:00:00 26,8 8,4 29,7 28,6 19,8 18,4 13 7 27 15 SSW 1015,3 46 58 0,0
18.09.2018 13:00:00 25,6 11,4 31,8 27,5 18,8 18,4 9 5 21 11 W 1015,8 25 60 0,0
18.09.2018 12:00:00 24,9 11,0 29,8 25,2 18,1 18,4 9 5 18 10 W 1016,2 42 60 0,0
18.09.2018 11:00:00 23,7 11,4 26,7 22,2 17,5 18,4 11 6 16 9 WSW 1016,4 36 60 0,0
18.09.2018 10:00:00 19,4 11,8 25,1 18,5 17,3 18,4 3 1 4 2 ESE 1017,1 41 60 0,0
18.09.2018 09:00:00 13,5 7,9 17,6 15,1 17,4 18,4 0 0 3 1 N 1018,3 31 60 0,0
18.09.2018 08:00:00 9,8 6,6 8,9 13,3 17,7 18,4 0 0 2 1 N 1018,9 27 22 0,0
18.09.2018 07:00:00 7,9 6,7 5,9 13,4 18,1 18,4 0 0 2 1 N 1019,0 29 0 0,0
18.09.2018 06:00:00 8,2 6,3 6,1 13,8 18,4 18,4 0 0 2 1 N 1018,9 34 0 0,0
18.09.2018 05:00:00 8,5 5,9 6,9 14,3 18,7 18,4 0 0 2 1 N 1019,0 39 0 0,0
18.09.2018 04:00:00 8,7 5,8 7,2 14,7 19,1 18,4 0 0 2 1 N 1019,1 39 0 0,0
18.09.2018 03:00:00 9,1 5,6 7,4 15,1 19,5 18,4 0 0 3 1 N 1019,0 41 0 0,0
18.09.2018 02:00:00 9,3 5,7 7,5 15,6 19,9 18,4 0 0 2 1 N 1019,2 40 0 0,0
18.09.2018 01:00:00 9,8 5,6 7,4 16,1 20,4 18,4 0 0 3 2 N 1019,2 41 0 0,0
18.09.2018 00:00:00 10,5 6,0 7,9 16,8 20,9 18,4 2 1 3 2 NW 1019,4 45 0 0,0
17.09.2018 23:00:00 11,3 5,8 8,3 17,7 21,4 18,4 0 0 3 2 N 1019,4 47 0 0,0
17.09.2018 22:00:00 12,6 6,5 9,1 18,8 21,9 18,4 2 1 4 2 NW 1019,3 49 0 0,0
17.09.2018 21:00:00 14,3 6,2 10,2 20,2 22,4 18,4 0 0 3 2 N 1019,1 60 0 0,0
17.09.2018 20:00:00 16,7 5,8 11,9 22,2 22,7 18,4 3 1 4 2 NW 1018,3 60 11 0,0
17.09.2018 19:00:00 21,1 5,7 18,2 24,9 22,8 18,4 3 2 7 4 W 1017,6 70 60 0,0
17.09.2018 18:00:00 24,9 4,1 26,6 27,3 22,5 18,4 4 2 12 7 SE 1017,0 70 60 0,0
17.09.2018 17:00:00 25,0 4,0 27,9 28,3 22,0 18,4 6 4 16 9 WSW 1017,4 60 60 0,0
17.09.2018 16:00:00 25,1 6,1 28,7 28,5 21,3 18,4 8 4 16 9 WSW 1017,7 42 60 0,0
17.09.2018 15:00:00 24,9 6,2 28,7 29,0 20,5 18,4 8 4 19 10 SW 1018,3 53 60 0,0
17.09.2018 14:00:00 24,4 6,7 28,4 28,3 19,5 18,4 9 5 20 11 SSW 1019,1 30 60 0,0
17.09.2018 13:00:00 22,9 8,4 26,9 27,0 18,6 18,4 10 6 16 9 SW 1019,7 24 60 0,0
17.09.2018 12:00:00 22,7 10,9 28,1 24,9 17,9 18,4 5 3 14 8 SSE 1020,0 29 60 0,0
17.09.2018 11:00:00 20,3 11,9 25,2 21,8 17,3 18,4 8 4 13 7 W 1021,0 25 60 0,0
17.09.2018 10:00:00 18,3 12,2 23,7 18,2 17,1 18,4 3 2 7 4 W 1021,3 30 60 0,0
17.09.2018 09:00:00 13,5 9,6 16,0 14,8 17,2 18,4 0 0 0 0 N 1022,3 14 60 0,0
17.09.2018 08:00:00 9,1 7,6 8,9 13,0 17,5 18,4 0 0 0 0 N 1023,1 9 23 0,0
17.09.2018 07:00:00 8,0 7,6 5,9 13,1 17,9 18,4 0 0 0 0 N 1023,1 4,6 0 0,0
17.09.2018 06:00:00 8,5 8,1 6,6 13,5 18,2 18,4 0 0 0 0 N 1022,8 4,3 0 0,0
17.09.2018 05:00:00 8,8 8,5 6,5 13,9 18,6 18,4 0 0 0 0 N 1022,5 4,0 0 0,0
17.09.2018 04:00:00 9,1 8,5 6,7 14,4 19,0 18,4 0 0 0 0 N 1022,4 12 0 0,0
17.09.2018 03:00:00 9,5 8,7 7,3 15,0 19,4 18,4 0 0 0 0 N 1022,3 11 0 0,0
17.09.2018 02:00:00 10,1 9,2 7,5 15,7 19,8 18,4 0 0 0 0 N 1022,4 13 0 0,0
17.09.2018 01:00:00 11,0 9,1 8,6 16,4 20,3 18,4 0 0 3 1 N 1022,3 24 0 0,0
17.09.2018 00:00:00 11,4 9,0 9,3 17,2 20,7 18,4 0 0 3 2 N 1022,2 27 0 0,0
16.09.2018 23:00:00 12,4 9,1 9,8 18,1 21,1 18,4 0 0 3 2 N 1022,1 31 0 0,0

tt = temperature
td = dewpoint
tt 5cm = temperature 5cm
tt -5cm = temperature -5cm
tt -20cm = temperature -20cm
tt -100cm = temperature -100cm
ff = wind speed
fx = gusts
dd = wind direction
ppp = reduced air pressure
vv = visibility
sd = sunshine duration
rr = precipitation

Next stations